This is the latest recevied weather packets stored in our database for station/object N2PUI. If no packets are shown the sender has not sent any weather packets the latest 10 day(s).
| Time | Temp. | Humidity | Pressure | Rain* | Wind** | Luminosity | Snow |
|---|---|---|---|---|---|---|---|
| 1777236176 | 17.22° C | 42% | 1020 hPa | 0 mm | - | 447 W/m² | - |
| 1777235872 | 17.22° C | 42% | 1019.6 hPa | 0 mm | - | 484 W/m² | - |
| 1777235569 | 16.67° C | 41% | 1019.8 hPa | 0 mm | - | 461 W/m² | - |
| 1777235265 | 16.67° C | 42% | 1019.8 hPa | 0 mm | - | 490 W/m² | - |
| 1777234962 | 16.67° C | 42% | 1020 hPa | 0 mm | - | 563 W/m² | - |
| 1777234658 | 17.22° C | 41% | 1019.8 hPa | 0 mm | - | 596 W/m² | - |
| 1777234353 | 17.78° C | 42% | 1019.7 hPa | 0 mm | - | 617 W/m² | - |
| 1777234049 | 16.67° C | 45% | 1020.3 hPa | 0 mm | - | 635 W/m² | - |
| 1777233745 | 16.11° C | 43% | 1020 hPa | 0 mm | - | 649 W/m² | - |
| 1777233442 | 16.67° C | 44% | 1020.1 hPa | 0 mm | - | 708 W/m² | - |
| 1777233141 | 16.67° C | 43% | 1020.2 hPa | 0 mm | - | 763 W/m² | - |
| 1777232837 | 15.56° C | 48% | 1020.1 hPa | 0 mm | - | 717 W/m² | - |
| 1777232536 | 15.56° C | 46% | 1020 hPa | 0 mm | - | 241 W/m² | - |
| 1777232234 | 17.22° C | 45% | 1019.8 hPa | 0 mm | - | 239 W/m² | - |
| 1777231929 | 16.67° C | 45% | 1020.2 hPa | 0 mm | - | 833 W/m² | - |
| 1777231627 | 16.67° C | 45% | 1020.2 hPa | 0 mm | - | 803 W/m² | - |
| 1777231324 | 16.67° C | 48% | 1020.2 hPa | 0 mm | - | 299 W/m² | - |
| 1777231019 | 16.11° C | 45% | 1020.3 hPa | 0 mm | - | 749 W/m² | - |
| 1777230715 | 15.56° C | 47% | 1020.3 hPa | 0 mm | - | 781 W/m² | - |
| 1777230410 | 16.11° C | 49% | 1020.4 hPa | 0 mm | - | 585 W/m² | - |
| 1777230107 | 16.11° C | 49% | 1020.3 hPa | 0 mm | - | 225 W/m² | - |
| 1777229804 | 15.56° C | 46% | 1020.5 hPa | 0 mm | - | 779 W/m² | - |
| 1777229500 | 15.56° C | 47% | 1020.4 hPa | 0 mm | - | 396 W/m² | - |
| 1777229198 | 15.56° C | 48% | 1020.3 hPa | 0 mm | - | 833 W/m² | - |
| 1777228895 | 15.56° C | 49% | 1020.5 hPa | 0 mm | - | 844 W/m² | - |
* Rain latest hour (hover to see other rain measurements)
** Current wind speed in m/s (hover to see current wind gust speed)